| time (UTC) | temp C | wind direction | speed KPH | gust KPH | rain 1hr cm | rain 24hr cm | rain mn cm | humidity % | barometer mb |
| 20260902014705 | 20 | 219 | 3.2 | 19.3 | 0.00 | 0.00 | 0.00 | 54 | 1014.2 |
| 20260902014203 | 20 | 260 | 3.2 | 14.5 | 0.00 | 0.00 | 0.00 | 53 | 1014.2 |
| 20260902013712 | 20 | 264 | 3.2 | 17.7 | 0.00 | 0.00 | 0.00 | 54 | 1014.1 |
| 20260902013211 | 21 | 41 | 3.2 | 17.7 | 0.00 | 0.00 | 0.00 | 53 | 1014.2 |
| 20260902012707 | 21 | 293 | 1.6 | 11.3 | 0.00 | 0.00 | 0.00 | 53 | 1014.1 |
| 20260902012203 | 21 | 278 | 1.6 | 9.7 | 0.00 | 0.00 | 0.00 | 52 | 1014.1 |
| 20260902011705 | 21 | 272 | 1.6 | 9.7 | 0.00 | 0.00 | 0.00 | 52 | 1014.0 |
| 20260902011204 | 21 | 287 | 3.2 | 9.7 | 0.00 | 0.00 | 0.00 | 52 | 1014.0 |
| 20260902010705 | 21 | 234 | 3.2 | 11.3 | 0.00 | 0.00 | 0.00 | 51 | 1014.0 |
| 20260902010422 | 21 | 224 | 1.6 | 12.9 | 0.00 | 0.00 | 0.00 | 52 | 1014.0 |
| 20260902005930 | 21 | 279 | 1.6 | 14.5 | 0.00 | 0.00 | 0.00 | 51 | 1014.0 |
| 20260902005203 | 21 | 225 | 1.6 | 14.5 | 0.00 | 0.00 | 0.00 | 49 | 1014.0 |
| 20260902004704 | 21 | 302 | 1.6 | 11.3 | 0.00 | 0.00 | 0.00 | 49 | 1013.9 |
| 20260902004203 | 21 | 268 | 4.8 | 12.9 | 0.00 | 0.00 | 0.00 | 51 | 1013.9 |
| 20260902003706 | 21 | 261 | 3.2 | 12.9 | 0.00 | 0.00 | 0.00 | 51 | 1013.9 |
| 20260902003429 | 21 | 256 | 1.6 | 9.7 | 0.00 | 0.00 | 0.00 | 50 | 1013.9 |
| 20260902002704 | 21 | 288 | 1.6 | 8.0 | 0.00 | 0.00 | 0.00 | 50 | 1013.8 |
| 20260902002203 | 21 | 259 | 4.8 | 14.5 | 0.00 | 0.00 | 0.00 | 50 | 1013.8 |
| 20260902002151 | 22 | 255 | 3.2 | 14.5 | 0.00 | 0.00 | 0.00 | 49 | 1013.9 |
| 20260902001203 | 23 | 288 | 1.6 | 14.5 | 0.00 | 0.00 | 0.00 | 46 | 1013.9 |
| 20260902000705 | 22 | 239 | 1.6 | 14.5 | 0.00 | 0.00 | 0.00 | 46 | 1013.8 |
| 20260902000204 | 22 | 220 | 1.6 | 14.5 | 0.00 | 0.00 | 0.00 | 46 | 1013.9 |
| 20260901235706 | 23 | 266 | 1.6 | 17.7 | 0.00 | 0.00 | 0.00 | 45 | 1013.9 |
| 20260901235204 | 23 | 251 | 1.6 | 17.7 | 0.00 | 0.00 | 0.00 | 44 | 1013.9 |
| 20260901234705 | 22 | 291 | 1.6 | 12.9 | 0.00 | 0.00 | 0.00 | 45 | 1014.0 |
| 20260901234204 | 22 | 165 | 1.6 | 11.3 | 0.00 | 0.00 | 0.00 | 45 | 1014.0 |
| 20260901233704 | 22 | 293 | 1.6 | 12.9 | 0.00 | 0.00 | 0.00 | 45 | 1013.9 |
| 20260901233203 | 22 | 260 | 3.2 | 16.1 | 0.00 | 0.00 | 0.00 | 46 | 1014.0 |
| 20260901232705 | 22 | 297 | 3.2 | 16.1 | 0.00 | 0.00 | 0.00 | 46 | 1013.9 |
| 20260901232202 | 22 | 302 | 3.2 | 12.9 | 0.00 | 0.00 | 0.00 | 44 | 1014.0 |
| 20260901231705 | 23 | 314 | 3.2 | 12.9 | 0.00 | 0.00 | 0.00 | 45 | 1014.0 |
| 20260901231427 | 23 | 293 | 4.8 | 11.3 | 0.00 | 0.00 | 0.00 | 44 | 1014.1 |
| 20260901230706 | 23 | 265 | 3.2 | 14.5 | 0.00 | 0.00 | 0.00 | 44 | 1014.0 |
| 20260901230203 | 23 | 245 | 1.6 | 14.5 | 0.00 | 0.00 | 0.00 | 42 | 1014.2 |
| 20260901225705 | 23 | 240 | 3.2 | 12.9 | 0.00 | 0.00 | 0.00 | 44 | 1014.2 |
| 20260901225210 | 22 | 250 | 3.2 | 14.5 | 0.00 | 0.00 | 0.00 | 45 | 1014.1 |
| 20260901224938 | 23 | 284 | 3.2 | 14.5 | 0.00 | 0.00 | 0.00 | 44 | 1014.1 |
| 20260901224203 | 22 | 239 | 4.8 | 16.1 | 0.00 | 0.00 | 0.00 | 45 | 1014.1 |
| 20260901223925 | 22 | 300 | 6.4 | 16.1 | 0.00 | 0.00 | 0.00 | 46 | 1014.2 |
| 20260901223204 | 23 | 231 | 4.8 | 14.5 | 0.00 | 0.00 | 0.00 | 45 | 1014.2 |
| 20260901222704 | 23 | 282 | 3.2 | 14.5 | 0.00 | 0.00 | 0.00 | 45 | 1014.3 |
| 20260901222204 | 23 | 278 | 1.6 | 9.7 | 0.00 | 0.00 | 0.00 | 45 | 1014.3 |
| 20260901221705 | 23 | 214 | 3.2 | 14.5 | 0.00 | 0.00 | 0.00 | 45 | 1014.2 |
| 20260901221203 | 23 | 267 | 3.2 | 17.7 | 0.00 | 0.00 | 0.00 | 47 | 1014.2 |
| 20260901220705 | 23 | 281 | 3.2 | 17.7 | 0.00 | 0.00 | 0.00 | 46 | 1014.2 |
| 20260901220203 | 23 | 254 | 3.2 | 14.5 | 0.00 | 0.00 | 0.00 | 47 | 1014.4 |
| 20260901215705 | 23 | 297 | 3.2 | 14.5 | 0.00 | 0.00 | 0.00 | 46 | 1014.5 |
| 20260901215649 | 23 | 276 | 3.2 | 17.7 | 0.00 | 0.00 | 0.00 | 46 | 1014.4 |
| 20260901214705 | 23 | 131 | 1.6 | 17.7 | 0.00 | 0.00 | 0.00 | 46 | 1014.4 |
| 20260901214203 | 23 | 127 | 1.6 | 9.7 | 0.00 | 0.00 | 0.00 | 46 | 1014.5 |
| 20260901213704 | 23 | 187 | 1.6 | 9.7 | 0.00 | 0.00 | 0.00 | 47 | 1014.5 |
| 20260901213202 | 23 | 186 | 1.6 | 11.3 | 0.00 | 0.00 | 0.00 | 44 | 1014.5 |
| 20260901212704 | 24 | 285 | 1.6 | 11.3 | 0.00 | 0.00 | 0.00 | 42 | 1014.5 |
| 20260901212203 | 24 | 236 | 1.6 | 14.5 | 0.00 | 0.00 | 0.00 | 44 | 1014.4 |
| 20260901211706 | 23 | 251 | 1.6 | 14.5 | 0.00 | 0.00 | 0.00 | 44 | 1014.4 |
| 20260901211204 | 23 | 300 | 1.6 | 8.0 | 0.00 | 0.00 | 0.00 | 44 | 1014.4 |
| 20260901210705 | 23 | 295 | 1.6 | 11.3 | 0.00 | 0.00 | 0.00 | 44 | 1014.4 |
| 20260901210203 | 23 | 257 | 1.6 | 11.3 | 0.00 | 0.00 | 0.00 | 45 | 1014.5 |
| 20260901205705 | 23 | 273 | 1.6 | 9.7 | 0.00 | 0.00 | 0.00 | 44 | 1014.5 |
| 20260901205430 | 23 | 250 | 1.6 | 11.3 | 0.00 | 0.00 | 0.00 | 44 | 1014.5 |
| 20260901204928 | 23 | 250 | 1.6 | 11.3 | 0.00 | 0.00 | 0.00 | 44 | 1014.4 |
| 20260901204203 | 22 | 194 | 1.6 | 9.7 | 0.00 | 0.00 | 0.00 | 47 | 1014.5 |
| 20260901203705 | 22 | 296 | 1.6 | 9.7 | 0.00 | 0.00 | 0.00 | 47 | 1014.5 |
| 20260901203204 | 22 | 278 | 1.6 | 9.7 | 0.00 | 0.00 | 0.00 | 45 | 1014.5 |
| 20260901202932 | 22 | 278 | 1.6 | 8.0 | 0.00 | 0.00 | 0.00 | 46 | 1014.7 |
| 20260901202203 | 22 | 283 | 1.6 | 8.0 | 0.00 | 0.00 | 0.00 | 46 | 1014.7 |
| 20260901201705 | 22 | 293 | 1.6 | 8.0 | 0.00 | 0.00 | 0.00 | 46 | 1014.7 |
| 20260901201427 | 22 | 271 | 3.2 | 14.5 | 0.00 | 0.00 | 0.00 | 46 | 1014.8 |
| 20260901200705 | 22 | 96 | 1.6 | 14.5 | 0.00 | 0.00 | 0.00 | 46 | 1014.9 |
| 20260901200203 | 22 | 250 | 1.6 | 8.0 | 0.00 | 0.00 | 0.00 | 47 | 1014.9 |
| 20260901195931 | 22 | 237 | 1.6 | 11.3 | 0.00 | 0.00 | 0.00 | 46 | 1015.0 |
| 20260901195203 | 22 | 277 | 1.6 | 11.3 | 0.00 | 0.00 | 0.00 | 47 | 1014.9 |
| 20260901194705 | 22 | 308 | 1.6 | 9.7 | 0.00 | 0.00 | 0.00 | 48 | 1014.9 |
| 20260901194204 | 22 | 262 | 1.6 | 9.7 | 0.00 | 0.00 | 0.00 | 48 | 1014.9 |
| 20260901193930 | 22 | 277 | 1.6 | 12.9 | 0.00 | 0.00 | 0.00 | 49 | 1015.0 |
| 20260901193203 | 21 | 253 | 1.6 | 12.9 | 0.00 | 0.00 | 0.00 | 49 | 1015.0 |
| 20260901192705 | 21 | 281 | 1.6 | 11.3 | 0.00 | 0.00 | 0.00 | 50 | 1015.1 |
| 20260901192203 | 21 | 248 | 3.2 | 11.3 | 0.00 | 0.00 | 0.00 | 51 | 1015.2 |
| 20260901191704 | 21 | 290 | 1.6 | 9.7 | 0.00 | 0.00 | 0.00 | 50 | 1015.2 |
| 20260901191420 | 21 | 229 | 1.6 | 11.3 | 0.00 | 0.00 | 0.00 | 51 | 1015.2 |
| 20260901190706 | 21 | 97 | 3.2 | 11.3 | 0.00 | 0.00 | 0.00 | 53 | 1015.2 |
| 20260901190203 | 21 | 124 | 1.6 | 9.7 | 0.00 | 0.00 | 0.00 | 53 | 1015.3 |
| 20260901185705 | 21 | 336 | 1.6 | 9.7 | 0.00 | 0.00 | 0.00 | 52 | 1015.3 |
| 20260901185427 | 21 | 254 | 1.6 | 9.7 | 0.00 | 0.00 | 0.00 | 53 | 1015.2 |
| 20260901184704 | 20 | 295 | 1.6 | 9.7 | 0.00 | 0.00 | 0.00 | 54 | 1015.2 |
| 20260901184203 | 20 | 280 | 1.6 | 9.7 | 0.00 | 0.00 | 0.00 | 56 | 1015.3 |
| 20260901183929 | 20 | 283 | 1.6 | 14.5 | 0.00 | 0.00 | 0.00 | 57 | 1015.3 |
| 20260901183204 | 20 | 254 | 3.2 | 14.5 | 0.00 | 0.00 | 0.00 | 55 | 1015.3 |
| 20260901182704 | 20 | 281 | 1.6 | 11.3 | 0.00 | 0.00 | 0.00 | 56 | 1015.2 |
| 20260901182204 | 20 | 276 | 0.0 | 6.4 | 0.00 | 0.00 | 0.00 | 57 | 1015.2 |
| 20260901181923 | 20 | 270 | 0.0 | 6.4 | 0.00 | 0.00 | 0.00 | 57 | 1015.2 |
| 20260901181203 | 20 | 271 | 0.0 | 8.0 | 0.00 | 0.00 | 0.00 | 56 | 1015.2 |
| 20260901180705 | 20 | 281 | 0.0 | 8.0 | 0.00 | 0.00 | 0.00 | 56 | 1015.2 |
| 20260901180202 | 21 | 285 | 1.6 | 8.0 | 0.00 | 0.00 | 0.00 | 55 | 1015.2 |
| 20260901175938 | 21 | 42 | 0.0 | 8.0 | 0.00 | 0.00 | 0.00 | 56 | 1015.1 |
| 20260901175204 | 20 | 280 | 0.0 | 12.9 | 0.00 | 0.00 | 0.00 | 57 | 1015.0 |
| 20260901174705 | 20 | 261 | 1.6 | 12.9 | 0.00 | 0.00 | 0.00 | 59 | 1014.9 |
| 20260901174431 | 20 | 184 | 1.6 | 9.7 | 0.00 | 0.00 | 0.00 | 59 | 1014.9 |
| 20260901173705 | 20 | 252 | 0.0 | 9.7 | 0.00 | 0.00 | 0.00 | 58 | 1014.9 |
| 20260901173203 | 20 | 245 | 1.6 | 14.5 | 0.00 | 0.00 | 0.00 | 60 | 1014.9 |
| 20260901172705 | 20 | 94 | 1.6 | 14.5 | 0.00 | 0.00 | 0.00 | 60 | 1014.9 |
| 20260901172203 | 20 | 263 | 1.6 | 12.9 | 0.00 | 0.00 | 0.00 | 60 | 1014.8 |
| 20260901171705 | 19 | 200 | 0.0 | 8.0 | 0.00 | 0.00 | 0.00 | 61 | 1014.8 |
| 20260901171203 | 19 | 284 | 0.0 | 4.8 | 0.00 | 0.00 | 0.00 | 61 | 1014.8 |
| 20260901170703 | 19 | 288 | 0.0 | 4.8 | 0.00 | 0.00 | 0.00 | 62 | 1014.7 |
| 20260901170204 | 18 | 283 | 0.0 | 4.8 | 0.00 | 0.00 | 0.00 | 64 | 1014.7 |
| 20260901165703 | 18 | 262 | 0.0 | 6.4 | 0.00 | 0.00 | 0.00 | 66 | 1014.6 |
| 20260901165203 | 18 | 306 | 0.0 | 6.4 | 0.00 | 0.00 | 0.00 | 66 | 1014.6 |
| 20260901164703 | 18 | 229 | 1.6 | 14.5 | 0.00 | 0.00 | 0.00 | 65 | 1014.6 |
| 20260901164203 | 17 | 255 | 1.6 | 14.5 | 0.00 | 0.00 | 0.00 | 68 | 1014.6 |
| 20260901163712 | 17 | 276 | 0.0 | 4.8 | 0.00 | 0.00 | 0.00 | 69 | 1014.6 |
| 20260901163147 | 17 | 180 | 1.6 | 8.0 | 0.00 | 0.00 | 0.00 | 69 | 1014.7 |
| 20260901162635 | 17 | 265 | 1.6 | 8.0 | 0.00 | 0.00 | 0.00 | 70 | 1014.8 |
| 20260901162131 | 17 | 262 | 0.0 | 6.4 | 0.00 | 0.00 | 0.00 | 73 | 1014.7 |
| 20260901161640 | 17 | 231 | 0.0 | 1.6 | 0.00 | 0.00 | 0.00 | 73 | 1014.6 |
| 20260901161134 | 17 | 251 | 0.0 | 9.7 | 0.00 | 0.00 | 0.00 | 74 | 1014.6 |
| 20260901160632 | 17 | 271 | 1.6 | 9.7 | 0.00 | 0.00 | 0.00 | 70 | 1014.5 |
| 20260901160131 | 17 | 285 | 0.0 | 9.7 | 0.00 | 0.00 | 0.00 | 72 | 1014.5 |
| 20260901155633 | 17 | 271 | 0.0 | 3.2 | 0.00 | 0.00 | 0.00 | 73 | 1014.4 |
| 20260901155131 | 17 | 276 | 1.6 | 11.3 | 0.00 | 0.00 | 0.00 | 73 | 1014.2 |
| 20260901154633 | 17 | 311 | 0.0 | 11.3 | 0.00 | 0.00 | 0.00 | 73 | 1014.2 |
| 20260901154129 | 17 | 240 | 0.0 | 3.2 | 0.00 | 0.00 | 0.00 | 73 | 1014.3 |
| 20260901153630 | 17 | 304 | 0.0 | 3.2 | 0.00 | 0.00 | 0.00 | 74 | 1014.1 |
| 20260901153129 | 17 | 276 | 0.0 | 4.8 | 0.00 | 0.00 | 0.00 | 75 | 1014.2 |
| 20260901152850 | 16 | 269 | 0.0 | 4.8 | 0.00 | 0.00 | 0.00 | 75 | 1014.2 |
| 20260901152128 | 16 | 288 | 0.0 | 4.8 | 0.00 | 0.00 | 0.00 | 76 | 1014.1 |
| 20260901151850 | 16 | 276 | 0.0 | 9.7 | 0.00 | 0.00 | 0.00 | 76 | 1014.1 |
| 20260901151129 | 16 | 292 | 0.0 | 9.7 | 0.00 | 0.00 | 0.00 | 76 | 1013.9 |
| 20260901150630 | 16 | 115 | 0.0 | 9.7 | 0.00 | 0.00 | 0.00 | 76 | 1013.9 |
| 20260901150348 | 16 | 245 | 0.0 | 6.4 | 0.00 | 0.00 | 0.00 | 77 | 1013.9 |
| 20260901145630 | 16 | 233 | 0.0 | 8.0 | 0.00 | 0.00 | 0.00 | 77 | 1013.9 |
| 20260901145129 | 16 | 210 | 0.0 | 8.0 | 0.00 | 0.00 | 0.00 | 77 | 1013.8 |
| 20260901144630 | 16 | 255 | 0.0 | 6.4 | 0.00 | 0.00 | 0.00 | 76 | 1013.8 |
| 20260901144129 | 16 | 270 | 1.6 | 11.3 | 0.00 | 0.00 | 0.00 | 76 | 1013.7 |
| 20260901143631 | 16 | 231 | 1.6 | 11.3 | 0.00 | 0.00 | 0.00 | 76 | 1013.6 |
| 20260901143130 | 16 | 285 | 0.0 | 0.0 | 0.00 | 0.00 | 0.00 | 77 | 1013.6 |
| 20260901142630 | 16 | 221 | 0.0 | 0.0 | 0.00 | 0.00 | 0.00 | 77 | 1013.6 |
| 20260901142129 | 15 | 231 | 0.0 | 0.0 | 0.00 | 0.00 | 0.00 | 77 | 1013.5 |
| 20260901141630 | 15 | 203 | 0.0 | 0.0 | 0.00 | 0.00 | 0.00 | 77 | 1013.4 |
| 20260901141129 | 15 | 284 | 0.0 | 0.0 | 0.00 | 0.00 | 0.00 | 77 | 1013.2 |
| 20260901140630 | 15 | 266 | 0.0 | 0.0 | 0.00 | 0.00 | 0.00 | 78 | 1013.2 |
| 20260901140129 | 15 | 250 | 0.0 | 0.0 | 0.00 | 0.00 | 0.00 | 78 | 1013.2 |
| 20260901135631 | 15 | 281 | 0.0 | 0.0 | 0.00 | 0.00 | 0.00 | 79 | 1013.2 |
| 20260901135129 | 15 | 304 | 0.0 | 0.0 | 0.00 | 0.00 | 0.00 | 80 | 1013.1 |
| 20260901134631 | 15 | 238 | 0.0 | 0.0 | 0.00 | 0.00 | 0.00 | 80 | 1013.1 |
| 20260901134353 | 15 | 283 | 0.0 | 0.0 | 0.00 | 0.00 | 0.00 | 80 | 1013.0 |
| 20260901133637 | 15 | 272 | 0.0 | 0.0 | 0.00 | 0.00 | 0.00 | 80 | 1012.9 |
| 20260901133129 | 15 | 277 | 0.0 | 0.0 | 0.00 | 0.00 | 0.00 | 80 | 1012.9 |
| 20260901132630 | 15 | 277 | 0.0 | 0.0 | 0.00 | 0.00 | 0.00 | 81 | 1012.8 |
| 20260901132129 | 15 | 277 | 0.0 | 0.0 | 0.00 | 0.00 | 0.00 | 81 | 1012.8 |
| 20260901131631 | 15 | 277 | 0.0 | 0.0 | 0.00 | 0.00 | 0.00 | 81 | 1012.7 |
| 20260901131129 | 15 | 295 | 0.0 | 0.0 | 0.00 | 0.00 | 0.00 | 81 | 1012.7 |
| 20260901130630 | 15 | 225 | 0.0 | 0.0 | 0.00 | 0.00 | 0.00 | 81 | 1012.8 |
| 20260901130128 | 15 | 271 | 0.0 | 0.0 | 0.00 | 0.00 | 0.00 | 81 | 1012.9 |
| 20260901125631 | 15 | 285 | 0.0 | 0.0 | 0.00 | 0.00 | 0.00 | 81 | 1012.8 |
| 20260901125128 | 15 | 279 | 0.0 | 0.0 | 0.00 | 0.00 | 0.00 | 81 | 1012.8 |
| 20260901124630 | 15 | 274 | 0.0 | 0.0 | 0.00 | 0.00 | 0.00 | 81 | 1012.7 |
| 20260901124129 | 15 | 286 | 0.0 | 0.0 | 0.00 | 0.00 | 0.00 | 81 | 1012.6 |
| 20260901123859 | 15 | 272 | 0.0 | 0.0 | 0.00 | 0.00 | 0.00 | 81 | 1012.6 |
| 20260901123129 | 15 | 7 | 0.0 | 0.0 | 0.00 | 0.00 | 0.00 | 81 | 1012.6 |
| 20260901122631 | 15 | 285 | 0.0 | 0.0 | 0.00 | 0.00 | 0.00 | 81 | 1012.6 |
| 20260901122128 | 15 | 285 | 0.0 | 0.0 | 0.00 | 0.00 | 0.00 | 81 | 1012.4 |
| 20260901121854 | 15 | 285 | 0.0 | 0.0 | 0.00 | 0.00 | 0.00 | 80 | 1012.5 |
| 20260901121128 | 15 | 291 | 0.0 | 1.6 | 0.00 | 0.00 | 0.00 | 80 | 1012.4 |
| 20260901120630 | 15 | 291 | 0.0 | 8.0 | 0.00 | 0.00 | 0.00 | 80 | 1012.3 |
| 20260901120130 | 15 | 305 | 0.0 | 8.0 | 0.00 | 0.00 | 0.00 | 79 | 1012.3 |
| 20260901115631 | 15 | 281 | 0.0 | 8.0 | 0.00 | 0.00 | 0.00 | 79 | 1012.4 |
| 20260901115130 | 15 | 296 | 0.0 | 8.0 | 0.00 | 0.00 | 0.00 | 79 | 1012.5 |
| 20260901114630 | 15 | 160 | 0.0 | 3.2 | 0.00 | 0.00 | 0.00 | 79 | 1012.5 |
| 20260901114128 | 15 | 276 | 0.0 | 9.7 | 0.00 | 0.00 | 0.00 | 78 | 1012.5 |
| 20260901113630 | 15 | 281 | 0.0 | 9.7 | 0.00 | 0.00 | 0.00 | 78 | 1012.5 |
| 20260901113128 | 15 | 274 | 0.0 | 3.2 | 0.00 | 0.00 | 0.00 | 77 | 1012.6 |
| 20260901112630 | 15 | 125 | 0.0 | 9.7 | 0.00 | 0.00 | 0.00 | 77 | 1012.5 |
| 20260901112129 | 15 | 256 | 0.0 | 9.7 | 0.00 | 0.00 | 0.00 | 77 | 1012.6 |
| 20260901111630 | 15 | 265 | 0.0 | 8.0 | 0.00 | 0.00 | 0.00 | 76 | 1012.6 |
| 20260901111129 | 15 | 268 | 0.0 | 6.4 | 0.00 | 0.00 | 0.00 | 76 | 1012.7 |
| 20260901110630 | 15 | 248 | 0.0 | 6.4 | 0.00 | 0.00 | 0.00 | 76 | 1012.6 |
| 20260901110400 | 15 | 261 | 0.0 | 4.8 | 0.00 | 0.00 | 0.00 | 76 | 1012.6 |
| 20260901105850 | 15 | 326 | 0.0 | 4.8 | 0.00 | 0.00 | 0.00 | 76 | 1012.6 |
| 20260901105347 | 15 | 214 | 0.0 | 3.2 | 0.00 | 0.00 | 0.00 | 76 | 1012.5 |
| 20260901104629 | 15 | 271 | 0.0 | 3.2 | 0.00 | 0.00 | 0.00 | 76 | 1012.5 |
| 20260901104129 | 15 | 297 | 0.0 | 1.6 | 0.00 | 0.00 | 0.00 | 76 | 1012.4 |
| 20260901103631 | 15 | 207 | 0.0 | 11.3 | 0.00 | 0.00 | 0.00 | 77 | 1012.3 |
| 20260901103129 | 15 | 285 | 0.0 | 12.9 | 0.00 | 0.00 | 0.00 | 77 | 1012.3 |
| 20260901102630 | 15 | 259 | 0.0 | 12.9 | 0.00 | 0.00 | 0.00 | 77 | 1012.3 |
| 20260901102129 | 15 | 161 | 0.0 | 1.6 | 0.00 | 0.00 | 0.00 | 77 | 1012.3 |
| 20260901101633 | 15 | 259 | 0.0 | 6.4 | 0.00 | 0.00 | 0.00 | 77 | 1012.2 |
| 20260901101128 | 15 | 275 | 0.0 | 6.4 | 0.00 | 0.00 | 0.00 | 77 | 1012.2 |
| 20260901100629 | 15 | 254 | 0.0 | 1.6 | 0.00 | 0.00 | 0.00 | 77 | 1012.1 |
| 20260901100129 | 15 | 271 | 0.0 | 1.6 | 0.00 | 0.00 | 0.00 | 77 | 1012.1 |
| 20260901095629 | 15 | 193 | 0.0 | 6.4 | 0.00 | 0.00 | 0.00 | 76 | 1012.1 |
| 20260901095129 | 15 | 248 | 0.0 | 6.4 | 0.00 | 0.00 | 0.00 | 76 | 1012.1 |
| 20260901094619 | 15 | 255 | 0.0 | 4.8 | 0.00 | 0.00 | 0.00 | 76 | 1012.2 |
| 20260901094119 | 15 | 285 | 0.0 | 8.0 | 0.00 | 0.00 | 0.00 | 75 | 1012.3 |
| 20260901093606 | 15 | 278 | 0.0 | 8.0 | 0.00 | 0.00 | 0.00 | 75 | 1012.4 |
| 20260901093105 | 15 | 262 | 0.0 | 4.8 | 0.00 | 0.00 | 0.00 | 74 | 1012.4 |
| 20260901092603 | 15 | 263 | 0.0 | 6.4 | 0.00 | 0.00 | 0.00 | 74 | 1012.4 |
| 20260901092323 | 15 | 251 | 0.0 | 6.4 | 0.00 | 0.00 | 0.00 | 74 | 1012.4 |
| 20260901091602 | 15 | 234 | 0.0 | 6.4 | 0.00 | 0.00 | 0.00 | 74 | 1012.4 |
| 20260901091325 | 15 | 290 | 0.0 | 6.4 | 0.00 | 0.00 | 0.00 | 73 | 1012.4 |
| 20260901090603 | 15 | 287 | 0.0 | 1.6 | 0.00 | 0.00 | 0.00 | 73 | 1012.4 |
| 20260901090100 | 15 | 238 | 0.0 | 1.6 | 0.00 | 0.00 | 0.00 | 73 | 1012.4 |
| 20260901085604 | 15 | 224 | 0.0 | 0.0 | 0.00 | 0.00 | 0.00 | 73 | 1012.3 |
| 20260901085100 | 15 | 267 | 0.0 | 4.8 | 0.00 | 0.00 | 0.00 | 73 | 1012.3 |
| 20260901084603 | 15 | 287 | 0.0 | 4.8 | 0.00 | 0.00 | 0.00 | 73 | 1012.5 |
| 20260901084550 | 15 | 276 | 0.0 | 4.8 | 0.00 | 0.00 | 0.00 | 73 | 1012.4 |
| 20260901083603 | 15 | 260 | 0.0 | 9.7 | 0.00 | 0.00 | 0.00 | 73 | 1012.5 |
| 20260901083108 | 15 | 274 | 0.0 | 9.7 | 0.00 | 0.00 | 0.00 | 73 | 1012.5 |
| 20260901082603 | 15 | 284 | 0.0 | 6.4 | 0.00 | 0.00 | 0.00 | 73 | 1012.5 |
| 20260901082101 | 15 | 281 | 0.0 | 4.8 | 0.00 | 0.00 | 0.00 | 73 | 1012.5 |
| 20260901081602 | 15 | 281 | 0.0 | 4.8 | 0.00 | 0.00 | 0.00 | 73 | 1012.4 |
| 20260901081100 | 15 | 306 | 0.0 | 1.6 | 0.00 | 0.00 | 0.00 | 73 | 1012.4 |
| 20260901080603 | 15 | 285 | 0.0 | 0.0 | 0.00 | 0.00 | 0.00 | 74 | 1012.4 |
| 20260901080101 | 15 | 281 | 0.0 | 0.0 | 0.00 | 0.00 | 0.00 | 74 | 1012.4 |
| 20260901075602 | 15 | 256 | 0.0 | 6.4 | 0.00 | 0.00 | 0.00 | 74 | 1012.4 |
| 20260901075101 | 15 | 256 | 0.0 | 6.4 | 0.00 | 0.00 | 0.00 | 73 | 1012.3 |
| 20260901074602 | 15 | 217 | 0.0 | 1.6 | 0.00 | 0.00 | 0.00 | 73 | 1012.3 |
| 20260901074101 | 15 | 295 | 0.0 | 3.2 | 0.00 | 0.00 | 0.00 | 73 | 1012.3 |
| 20260901073827 | 15 | 249 | 0.0 | 3.2 | 0.00 | 0.00 | 0.00 | 73 | 1012.3 |
| 20260901073101 | 15 | 240 | 0.0 | 3.2 | 0.00 | 0.00 | 0.00 | 73 | 1012.3 |
| 20260901072603 | 15 | 286 | 0.0 | 8.0 | 0.00 | 0.00 | 0.00 | 73 | 1012.3 |
| 20260901072101 | 15 | 252 | 0.0 | 8.0 | 0.00 | 0.00 | 0.00 | 73 | 1012.3 |
| 20260901071603 | 15 | 249 | 0.0 | 8.0 | 0.00 | 0.00 | 0.00 | 73 | 1012.3 |
| 20260901071101 | 15 | 227 | 0.0 | 8.0 | 0.00 | 0.00 | 0.00 | 73 | 1012.3 |
| 20260901070602 | 15 | 259 | 0.0 | 3.2 | 0.00 | 0.00 | 0.00 | 74 | 1012.3 |
| 20260901070316 | 15 | 231 | 0.0 | 3.2 | 0.00 | 0.00 | 0.00 | 74 | 1012.3 |
| 20260901065602 | 15 | 258 | 0.0 | 9.7 | 0.00 | 0.00 | 0.00 | 74 | 1012.2 |
| 20260901065101 | 15 | 292 | 0.0 | 9.7 | 0.00 | 0.00 | 0.00 | 75 | 1012.3 |
| 20260901064603 | 15 | 287 | 1.6 | 9.7 | 0.00 | 0.00 | 0.00 | 75 | 1012.4 |
| 20260901064326 | 15 | 266 | 1.6 | 9.7 | 0.00 | 0.00 | 0.00 | 75 | 1012.4 |
| 20260901063603 | 15 | 196 | 1.6 | 6.4 | 0.00 | 0.00 | 0.00 | 75 | 1012.4 |
| 20260901063101 | 15 | 273 | 0.0 | 4.8 | 0.00 | 0.00 | 0.00 | 75 | 1012.4 |
| 20260901062602 | 15 | 256 | 0.0 | 6.4 | 0.00 | 0.00 | 0.00 | 75 | 1012.4 |
| 20260901062100 | 15 | 288 | 0.0 | 6.4 | 0.00 | 0.00 | 0.00 | 75 | 1012.4 |
| 20260901061602 | 15 | 298 | 0.0 | 6.4 | 0.00 | 0.00 | 0.00 | 75 | 1012.5 |
| 20260901061100 | 15 | 219 | 0.0 | 6.4 | 0.00 | 0.00 | 0.00 | 75 | 1012.5 |
| 20260901060826 | 15 | 236 | 0.0 | 6.4 | 0.00 | 0.00 | 0.00 | 75 | 1012.5 |
| 20260901055604 | 15 | 325 | 1.6 | 12.9 | 0.00 | 0.00 | 0.00 | 75 | 1012.5 |
| 20260901055101 | 15 | 266 | 0.0 | 9.7 | 0.00 | 0.00 | 0.00 | 75 | 1012.6 |
| 20260901054552 | 15 | 260 | 0.0 | 9.7 | 0.00 | 0.00 | 0.00 | 76 | 1012.5 |
| 20260901054048 | 15 | 252 | 1.6 | 9.7 | 0.00 | 0.00 | 0.00 | 76 | 1012.4 |
| 20260901053531 | 15 | 282 | 1.6 | 9.7 | 0.00 | 0.00 | 0.00 | 75 | 1012.4 |
| 20260901053030 | 15 | 210 | 0.0 | 9.7 | 0.00 | 0.00 | 0.00 | 76 | 1012.3 |
| 20260901052529 | 15 | 271 | 0.0 | 6.4 | 0.00 | 0.00 | 0.00 | 76 | 1012.3 |
| 20260901052255 | 15 | 295 | 0.0 | 9.7 | 0.00 | 0.00 | 0.00 | 75 | 1012.4 |
| 20260901051536 | 15 | 266 | 0.0 | 9.7 | 0.00 | 0.00 | 0.00 | 75 | 1012.3 |
| 20260901051029 | 15 | 254 | 0.0 | 8.0 | 0.00 | 0.00 | 0.00 | 75 | 1012.3 |
| 20260901050529 | 15 | 274 | 0.0 | 4.8 | 0.00 | 0.00 | 0.00 | 75 | 1012.3 |
| 20260901050028 | 15 | 299 | 1.6 | 11.3 | 0.00 | 0.00 | 0.00 | 75 | 1012.3 |
| 20260901045516 | 15 | 224 | 1.6 | 11.3 | 0.00 | 0.00 | 0.00 | 74 | 1012.2 |
| 20260901045001 | 15 | 296 | 1.6 | 9.7 | 0.00 | 0.00 | 0.00 | 74 | 1012.3 |
| 20260901044501 | 15 | 287 | 1.6 | 11.3 | 0.00 | 0.00 | 0.00 | 74 | 1012.3 |
| 20260901044001 | 15 | 238 | 1.6 | 11.3 | 0.00 | 0.00 | 0.00 | 74 | 1012.3 |
| 20260901043501 | 15 | 289 | 1.6 | 9.7 | 0.00 | 0.00 | 0.00 | 74 | 1012.2 |
| 20260901043225 | 15 | 283 | 1.6 | 14.5 | 0.00 | 0.00 | 0.00 | 74 | 1012.3 |
| 20260901042500 | 15 | 262 | 1.6 | 14.5 | 0.00 | 0.00 | 0.00 | 74 | 1012.3 |
| 20260901042224 | 15 | 279 | 1.6 | 14.5 | 0.00 | 0.00 | 0.00 | 74 | 1012.2 |
| 20260901041500 | 15 | 260 | 1.6 | 14.5 | 0.00 | 0.00 | 0.00 | 74 | 1012.2 |
| 20260901041001 | 15 | 276 | 1.6 | 8.0 | 0.00 | 0.00 | 0.00 | 74 | 1012.1 |
| 20260901040501 | 15 | 268 | 1.6 | 4.8 | 0.00 | 0.00 | 0.00 | 74 | 1012.1 |
| 20260901040001 | 15 | 315 | 1.6 | 9.7 | 0.00 | 0.00 | 0.00 | 74 | 1012.0 |
| 20260901035501 | 15 | 297 | 1.6 | 9.7 | 0.00 | 0.00 | 0.00 | 74 | 1012.0 |
| 20260901035000 | 15 | 242 | 1.6 | 8.0 | 0.00 | 0.00 | 0.00 | 74 | 1011.9 |
| 20260901034501 | 15 | 258 | 1.6 | 12.9 | 0.00 | 0.00 | 0.00 | 74 | 1011.9 |
| 20260901034001 | 15 | 227 | 1.6 | 12.9 | 0.00 | 0.00 | 0.00 | 74 | 1011.8 |
| 20260901033500 | 15 | 241 | 3.2 | 12.9 | 0.00 | 0.00 | 0.00 | 74 | 1011.7 |
| 20260901033001 | 15 | 238 | 1.6 | 12.9 | 0.00 | 0.00 | 0.00 | 74 | 1011.7 |
| 20260901032502 | 15 | 249 | 3.2 | 14.5 | 0.00 | 0.00 | 0.00 | 74 | 1011.6 |
| 20260901032001 | 15 | 239 | 3.2 | 14.5 | 0.00 | 0.00 | 0.00 | 74 | 1011.6 |
| 20260901031501 | 15 | 253 | 3.2 | 17.7 | 0.00 | 0.00 | 0.00 | 74 | 1011.5 |
| 20260901031223 | 15 | 244 | 3.2 | 17.7 | 0.00 | 0.00 | 0.00 | 74 | 1011.5 |
| 20260901030500 | 15 | 241 | 3.2 | 14.5 | 0.00 | 0.00 | 0.00 | 74 | 1011.4 |
| 20260901030001 | 15 | 290 | 1.6 | 14.5 | 0.00 | 0.00 | 0.00 | 73 | 1011.4 |
| 20260901025500 | 15 | 232 | 1.6 | 6.4 | 0.00 | 0.00 | 0.00 | 73 | 1011.4 |
| 20260901025002 | 16 | 183 | 1.6 | 6.4 | 0.00 | 0.00 | 0.00 | 73 | 1011.5 |
| 20260901024501 | 16 | 281 | 1.6 | 14.5 | 0.00 | 0.00 | 0.00 | 73 | 1011.5 |
| 20260901024001 | 16 | 245 | 1.6 | 14.5 | 0.00 | 0.00 | 0.00 | 72 | 1011.5 |
| 20260901023501 | 16 | 258 | 3.2 | 14.5 | 0.00 | 0.00 | 0.00 | 72 | 1011.4 |
| 20260901023000 | 16 | 288 | 1.6 | 14.5 | 0.00 | 0.00 | 0.00 | 72 | 1011.4 |
| 20260901022724 | 16 | 238 | 1.6 | 11.3 | 0.00 | 0.00 | 0.00 | 71 | 1011.3 |
| 20260901022232 | 16 | 353 | 3.2 | 22.5 | 0.00 | 0.00 | 0.00 | 71 | 1011.4 |
| 20260901021501 | 16 | 271 | 3.2 | 22.5 | 0.00 | 0.00 | 0.00 | 70 | 1011.4 |
| 20260901021001 | 16 | 271 | 3.2 | 14.5 | 0.00 | 0.00 | 0.00 | 70 | 1011.4 |
| 20260901020501 | 16 | 266 | 3.2 | 17.7 | 0.00 | 0.00 | 0.00 | 70 | 1011.2 |
| 20260901020001 | 17 | 293 | 3.2 | 17.7 | 0.00 | 0.00 | 0.00 | 69 | 1011.3 |
| 20260901015501 | 17 | 271 | 3.2 | 16.1 | 0.00 | 0.00 | 0.00 | 68 | 1011.4 |